BEIDOU IGSO-6 (C13)

Last updated on Aug. 8, 2020, 5:33 a.m. UTC

1 41434U 16021A   20220.32903159 -.00000137  00000-0  00000-0 0  9996
2 41434  57.1105  59.9678 0039548 203.6090 265.0328  1.00289267 16031
UTC
Height (km)
Latitude
Longitude
Inclination
Orbital Period
UTC large
Height (km)
Speed (km/s)
/
Latitude / Longitude
Inclination (degrees)
Orbital Period (minutes)
Azimuth
Elevation
Range (km)
Doppler Factor
iOS Compass Heading
iOS Angle

Next 30 passes for location: Hong Kong

Rise time Rise Azimuth (degrees) Set time Set Azimuth (degrees) Duration Max altitude (degrees)

No matching passes for this satellites